QPF
0.02 0.05 0.07 0.08 0.03 0.01 0.01 0.01 0.01 0.01 0.01 0.01 0.01 0.01 0.01 0.01 0.02 0.07 0.10 0.05 0.06 0.08 0.11 0.16 0.19 0.19 0.20 0.23 0.22 0.21 0.22 0.25 0.21 0.11 0.05 0.02 0.01 0.00 0.00 0.00 0.00 0.00 0.00
0.04 0.08 0.08 0.10 0.08 0.07 0.04 0.05 0.03 0.04 0.02 0.01 0.01 0.00 0.00 0.00 0.00 0.01 0.03 0.02 0.01 0.02 0.03 0.08 0.14 0.16 0.19 0.24 0.21 0.18 0.20 0.26 0.26 0.15 0.07 0.04 0.03 0.02 0.01 0.00 0.00 0.00 0.00
0.09 0.10 0.08 0.08 0.11 0.09 0.10 0.13 0.10 0.07 0.02 0.01 0.00 0.00 0.00 0.00 0.00 0.00 0.00 0.00 0.01 0.00 0.00 0.02 0.07 0.11 0.10 0.13 0.18 0.20 0.22 0.27 0.31 0.22 0.13 0.08 0.06 0.05 0.02 0.00 0.00 0.00 0.00
0.10 0.12 0.08 0.06 0.09 0.09 0.12 0.14 0.11 0.06 0.02 0.00 0.00 0.00 0.01 0.01 0.00 0.00 0.00 0.00 0.00 0.00 0.00 0.00 0.02 0.04 0.04 0.05 0.11 0.18 0.21 0.25 0.30 0.29 0.27 0.23 0.18 0.14 0.07 0.03 0.01 0.00 0.00
0.09 0.13 0.10 0.09 0.06 0.08 0.09 0.06 0.06 0.06 0.02 0.01 0.00 0.00 0.01 0.01 0.00 0.00 0.00 0.00 0.00 0.00 0.00 0.00 0.00 0.01 0.03 0.07 0.09 0.13 0.19 0.24 0.30 0.40 0.52 0.54 0.50 0.40 0.22 0.08 0.01 0.00 0.00
0.11 0.15 0.12 0.10 0.06 0.10 0.11 0.07 0.06 0.06 0.03 0.01 0.00 0.00 0.00 0.00 0.00 0.00 0.00 0.00 0.00 0.00 0.00 0.01 0.01 0.01 0.01 0.02 0.03 0.05 0.12 0.25 0.32 0.49 0.81 0.91 0.82 0.68 0.39 0.15 0.03 0.01 0.00
0.14 0.19 0.12 0.13 0.11 0.12 0.12 0.06 0.05 0.04 0.03 0.01 0.00 0.00 0.00 0.00 0.00 0.00 0.00 0.00 0.00 0.00 0.00 0.00 0.00 0.01 0.01 0.00 0.01 0.01 0.05 0.22 0.33 0.44 0.91 1.36 1.29 0.88 0.42 0.14 0.04 0.01 0.00
0.18 0.18 0.22 0.17 0.16 0.16 0.16 0.14 0.12 0.07 0.04 0.02 0.01 0.00 0.00 0.00 0.00 0.00 0.00 0.00 0.00 0.00 0.00 0.00 0.00 0.00 0.01 0.02 0.03 0.00 0.03 0.11 0.22 0.38 0.74 1.28 1.32 0.82 0.38 0.15 0.04 0.01 0.00
0.21 0.20 0.24 0.24 0.23 0.21 0.21 0.25 0.18 0.14 0.13 0.07 0.03 0.02 0.01 0.01 0.00 0.00 0.00 0.00 0.00 0.00 0.00 0.00 0.00 0.00 0.01 0.02 0.05 0.04 0.02 0.05 0.12 0.22 0.37 0.70 0.76 0.49 0.25 0.12 0.04 0.01 0.00
0.23 0.23 0.24 0.25 0.27 0.25 0.25 0.23 0.15 0.20 0.17 0.13 0.10 0.07 0.04 0.02 0.01 0.00 0.00 0.00 0.00 0.00 0.00 0.00 0.00 0.00 0.00 0.02 0.03 0.03 0.01 0.03 0.09 0.11 0.13 0.26 0.33 0.26 0.16 0.08 0.03 0.01 0.00
0.25 0.24 0.23 0.24 0.25 0.24 0.24 0.21 0.19 0.22 0.19 0.17 0.15 0.10 0.08 0.05 0.02 0.02 0.01 0.02 0.00 0.00 0.00 0.00 0.00 0.00 0.01 0.03 0.06 0.03 0.01 0.02 0.07 0.09 0.11 0.13 0.13 0.11 0.07 0.06 0.04 0.01 0.00
0.22 0.20 0.20 0.16 0.16 0.17 0.19 0.17 0.18 0.21 0.20 0.16 0.14 0.10 0.08 0.05 0.04 0.03 0.02 0.04 0.02 0.00 0.00 0.00 0.00 0.00 0.01 0.03 0.04 0.02 0.02 0.05 0.07 0.10 0.10 0.08 0.06 0.05 0.04 0.03 0.01 0.00 0.00
0.23 0.20 0.16 0.10 0.09 0.09 0.10 0.09 0.11 0.16 0.16 0.15 0.14 0.11 0.07 0.04 0.02 0.02 0.02 0.02 0.02 0.01 0.01 0.00 0.00 0.00 0.00 0.02 0.04 0.03 0.05 0.07 0.06 0.06 0.04 0.03 0.03 0.02 0.01 0.00 0.00 0.00 0.00
0.26 0.22 0.15 0.10 0.07 0.06 0.06 0.05 0.08 0.10 0.10 0.11 0.12 0.14 0.09 0.06 0.05 0.02 0.03 0.04 0.06 0.06 0.06 0.06 0.02 0.00 0.00 0.01 0.02 0.03 0.04 0.04 0.03 0.02 0.02 0.01 0.01 0.00 0.00 0.00 0.00 0.00 0.00
0.25 0.20 0.16 0.11 0.08 0.06 0.04 0.04 0.06 0.05 0.06 0.08 0.11 0.14 0.11 0.11 0.09 0.06 0.07 0.09 0.13 0.16 0.22 0.21 0.11 0.02 0.00 0.00 0.00 0.01 0.02 0.02 0.02 0.01 0.00 0.00 0.00 0.00 0.00 0.00 0.00 0.00 0.00
0.14 0.12 0.10 0.07 0.04 0.03 0.02 0.01 0.02 0.02 0.02 0.03 0.05 0.08 0.10 0.12 0.11 0.10 0.12 0.14 0.17 0.23 0.28 0.28 0.19 0.07 0.01 0.00 0.00 0.00 0.00 0.00 0.00 0.00 0.00 0.00 0.00 0.00 0.00 0.00 0.00 0.00 0.00
0.04 0.03 0.02 0.01 0.01 0.00 0.00 0.00 0.00 0.00 0.01 0.01 0.02 0.02 0.04 0.07 0.09 0.09 0.11 0.14 0.18 0.25 0.29 0.34 0.27 0.13 0.04 0.01 0.00 0.00 0.00 0.00 0.00 0.00 0.00 0.00 0.00 0.00 0.00 0.00 0.00 0.00 0.00
0.01 0.00 0.00 0.00 0.00 0.00 0.00 0.00 0.00 0.00 0.01 0.01 0.01 0.01 0.01 0.03 0.04 0.06 0.07 0.09 0.15 0.22 0.29 0.34 0.34 0.22 0.10 0.04 0.02 0.02 0.01 0.01 0.01 0.00 0.00 0.00 0.00 0.00 0.00 0.00 0.00 0.00 0.00
0.00 0.00 0.00 0.00 0.00 0.00 0.00 0.00 0.00 0.00 0.01 0.01 0.01 0.02 0.02 0.02 0.04 0.05 0.06 0.09 0.12 0.17 0.22 0.30 0.34 0.28 0.18 0.10 0.08 0.06 0.03 0.04 0.01 0.00 0.00 0.00 0.00 0.00 0.00 0.00 0.00 0.00 0.00
0.00 0.00 0.00 0.00 0.00 0.00 0.00 0.00 0.01 0.01 0.01 0.01 0.01 0.01 0.01 0.03 0.05 0.06 0.06 0.09 0.11 0.14 0.17 0.24 0.29 0.27 0.25 0.18 0.19 0.16 0.12 0.09 0.05 0.02 0.01 0.01 0.00 0.00 0.00 0.01 0.01 0.00 0.00
0.00 0.00 0.00 0.00 0.00 0.00 0.00 0.01 0.02 0.02 0.02 0.01 0.01 0.01 0.01 0.02 0.02 0.03 0.05 0.09 0.13 0.17 0.18 0.21 0.22 0.22 0.22 0.21 0.21 0.19 0.16 0.14 0.11 0.06 0.08 0.07 0.07 0.09 0.05 0.02 0.01 0.01 0.01
0.00 0.00 0.00 0.00 0.00 0.00 0.00 0.00 0.01 0.01 0.01 0.00 0.01 0.01 0.01 0.01 0.02 0.03 0.03 0.05 0.10 0.16 0.22 0.23 0.21 0.21 0.20 0.20 0.20 0.18 0.16 0.15 0.17 0.12 0.12 0.13 0.11 0.14 0.09 0.05 0.03 0.02 0.02
0.00 0.00 0.00 0.00 0.00 0.00 0.00 0.00 0.00 0.00 0.00 0.00 0.00 0.00 0.00 0.00 0.01 0.01 0.01 0.01 0.03 0.05 0.10 0.15 0.20 0.24 0.24 0.23 0.21 0.20 0.17 0.15 0.15 0.10 0.12 0.21 0.18 0.16 0.06 0.06 0.05 0.03 0.02
0.00 0.00 0.00 0.00 0.00 0.00 0.00 0.00 0.00 0.00 0.00 0.00 0.00 0.00 0.00 0.00 0.00 0.00 0.00 0.01 0.00 0.00 0.01 0.03 0.05 0.08 0.14 0.19 0.20 0.19 0.15 0.12 0.10 0.05 0.05 0.16 0.16 0.13 0.05 0.03 0.03 0.02 0.02
0.00 0.00 0.00 0.00 0.00 0.00 0.00 0.00 0.00 0.00 0.00 0.00 0.00 0.00 0.00 0.00 0.00 0.00 0.00 0.00 0.00 0.00 0.00 0.00 0.00 0.01 0.02 0.05 0.08 0.11 0.11 0.12 0.15 0.10 0.03 0.08 0.10 0.09 0.10 0.08 0.03 0.01 0.01
0.01 0.01 0.01 0.01 0.01 0.00 0.00 0.00 0.00 0.00 0.00 0.00 0.00 0.00 0.00 0.00 0.00 0.00 0.00 0.00 0.00 0.00 0.00 0.00 0.00 0.00 0.00 0.00 0.01 0.02 0.03 0.05 0.08 0.08 0.03 0.03 0.04 0.07 0.13 0.12 0.04 0.01 0.01
MSLP
1015.64 1015.76 1015.82 1015.82 1015.79 1015.75 1015.71 1015.70 1015.70 1015.70 1015.70 1015.66 1015.60 1015.50 1015.38 1015.27 1015.19 1015.18 1015.22 1015.32 1015.45 1015.59 1015.71 1015.78 1015.80 1015.77 1015.71 1015.66 1015.65 1015.72 1015.88 1016.13 1016.49 1016.92 1017.39 1017.89 1018.39 1018.86 1019.29 1019.67 1020.00 1020.27 1020.49
1015.55 1015.69 1015.75 1015.75 1015.70 1015.62 1015.55 1015.50 1015.49 1015.49 1015.50 1015.49 1015.44 1015.36 1015.25 1015.13 1015.02 1014.95 1014.94 1014.98 1015.07 1015.18 1015.28 1015.34 1015.35 1015.31 1015.23 1015.15 1015.09 1015.10 1015.21 1015.44 1015.78 1016.23 1016.77 1017.35 1017.94 1018.52 1019.05 1019.52 1019.91 1020.23 1020.49
1015.51 1015.66 1015.73 1015.73 1015.66 1015.56 1015.46 1015.39 1015.36 1015.36 1015.38 1015.39 1015.37 1015.30 1015.19 1015.05 1014.90 1014.78 1014.70 1014.68 1014.72 1014.79 1014.86 1014.91 1014.91 1014.85 1014.74 1014.61 1014.50 1014.46 1014.51 1014.69 1015.03 1015.49 1016.07 1016.73 1017.42 1018.11 1018.75 1019.32 1019.80 1020.20 1020.51
1015.47 1015.64 1015.71 1015.70 1015.63 1015.51 1015.40 1015.31 1015.27 1015.27 1015.30 1015.33 1015.32 1015.26 1015.14 1014.98 1014.79 1014.61 1014.47 1014.39 1014.37 1014.40 1014.44 1014.46 1014.44 1014.35 1014.21 1014.04 1013.87 1013.76 1013.76 1013.90 1014.22 1014.70 1015.32 1016.05 1016.84 1017.63 1018.39 1019.07 1019.65 1020.13 1020.51
1015.39 1015.56 1015.64 1015.64 1015.56 1015.44 1015.32 1015.22 1015.18 1015.18 1015.22 1015.25 1015.25 1015.19 1015.07 1014.88 1014.66 1014.44 1014.24 1014.11 1014.03 1014.01 1014.01 1014.00 1013.94 1013.82 1013.64 1013.42 1013.20 1013.04 1012.99 1013.09 1013.39 1013.88 1014.55 1015.34 1016.21 1017.11 1017.97 1018.76 1019.44 1020.01 1020.46
1015.24 1015.41 1015.50 1015.50 1015.43 1015.31 1015.19 1015.10 1015.06 1015.06 1015.10 1015.13 1015.14 1015.08 1014.95 1014.75 1014.51 1014.25 1014.01 1013.83 1013.71 1013.64 1013.59 1013.54 1013.44 1013.29 1013.06 1012.80 1012.54 1012.34 1012.25 1012.34 1012.63 1013.13 1013.83 1014.67 1015.61 1016.58 1017.53 1018.40 1019.16 1019.80 1020.33
1015.03 1015.19 1015.28 1015.29 1015.23 1015.13 1015.02 1014.94 1014.90 1014.90 1014.94 1014.97 1014.98 1014.93 1014.80 1014.60 1014.34 1014.07 1013.81 1013.59 1013.43 1013.31 1013.22 1013.12 1012.99 1012.79 1012.54 1012.24 1011.96 1011.74 1011.64 1011.73 1012.03 1012.55 1013.26 1014.14 1015.11 1016.12 1017.11 1018.03 1018.84 1019.53 1020.10
1014.76 1014.91 1015.01 1015.03 1015.00 1014.91 1014.82 1014.75 1014.71 1014.71 1014.75 1014.79 1014.80 1014.75 1014.63 1014.44 1014.19 1013.91 1013.65 1013.41 1013.22 1013.07 1012.94 1012.80 1012.63 1012.40 1012.13 1011.83 1011.54 1011.33 1011.25 1011.35 1011.67 1012.21 1012.94 1013.82 1014.79 1015.80 1016.78 1017.69 1018.50 1019.20 1019.78
1014.47 1014.62 1014.72 1014.76 1014.74 1014.68 1014.60 1014.54 1014.51 1014.51 1014.55 1014.59 1014.60 1014.57 1014.47 1014.30 1014.07 1013.81 1013.55 1013.31 1013.11 1012.93 1012.77 1012.60 1012.41 1012.17 1011.89 1011.61 1011.35 1011.18 1011.14 1011.29 1011.63 1012.19 1012.91 1013.77 1014.71 1015.67 1016.59 1017.44 1018.20 1018.86 1019.41
1014.21 1014.34 1014.44 1014.49 1014.49 1014.44 1014.38 1014.33 1014.30 1014.30 1014.34 1014.38 1014.41 1014.39 1014.32 1014.18 1013.99 1013.77 1013.53 1013.30 1013.09 1012.90 1012.72 1012.54 1012.33 1012.10 1011.85 1011.60 1011.41 1011.29 1011.32 1011.51 1011.90 1012.46 1013.17 1013.99 1014.85 1015.72 1016.55 1017.30 1017.96 1018.53 1019.02
1013.99 1014.11 1014.21 1014.26 1014.26 1014.22 1014.16 1014.10 1014.07 1014.07 1014.10 1014.15 1014.19 1014.20 1014.16 1014.06 1013.92 1013.73 1013.53 1013.32 1013.12 1012.94 1012.76 1012.57 1012.38 1012.17 1011.96 1011.77 1011.64 1011.61 1011.71 1011.97 1012.39 1012.95 1013.63 1014.39 1015.16 1015.91 1016.61 1017.23 1017.77 1018.24 1018.64
1013.84 1013.95 1014.03 1014.07 1014.06 1014.01 1013.94 1013.87 1013.83 1013.82 1013.84 1013.89 1013.94 1013.97 1013.97 1013.92 1013.82 1013.68 1013.51 1013.33 1013.16 1012.99 1012.82 1012.65 1012.48 1012.31 1012.16 1012.04 1011.99 1012.04 1012.21 1012.52 1012.97 1013.53 1014.17 1014.85 1015.52 1016.15 1016.72 1017.20 1017.62 1017.97 1018.28
1013.77 1013.86 1013.92 1013.94 1013.90 1013.83 1013.73 1013.63 1013.56 1013.53 1013.54 1013.58 1013.64 1013.69 1013.72 1013.71 1013.65 1013.56 1013.43 1013.29 1013.14 1012.99 1012.85 1012.71 1012.57 1012.45 1012.36 1012.32 1012.34 1012.46 1012.69 1013.04 1013.50 1014.04 1014.63 1015.23 1015.80 1016.32 1016.77 1017.14 1017.44 1017.70 1017.93
1013.78 1013.86 1013.89 1013.87 1013.79 1013.68 1013.54 1013.41 1013.30 1013.24 1013.22 1013.25 1013.31 1013.37 1013.42 1013.43 1013.41 1013.35 1013.26 1013.16 1013.04 1012.92 1012.80 1012.70 1012.61 1012.55 1012.51 1012.53 1012.62 1012.79 1013.05 1013.41 1013.86 1014.36 1014.89 1015.42 1015.91 1016.33 1016.69 1016.97 1017.20 1017.39 1017.57
1013.89 1013.94 1013.94 1013.87 1013.76 1013.60 1013.41 1013.23 1013.09 1012.98 1012.94 1012.94 1012.98 1013.04 1013.09 1013.12 1013.12 1013.08 1013.01 1012.93 1012.84 1012.75 1012.67 1012.61 1012.57 1012.56 1012.58 1012.64 1012.77 1012.97 1013.24 1013.58 1013.99 1014.44 1014.90 1015.35 1015.76 1016.12 1016.42 1016.65 1016.85 1017.01 1017.17
1014.09 1014.11 1014.08 1013.98 1013.82 1013.61 1013.38 1013.16 1012.97 1012.83 1012.75 1012.72 1012.73 1012.77 1012.80 1012.82 1012.81 1012.78 1012.72 1012.65 1012.58 1012.52 1012.48 1012.46 1012.47 1012.50 1012.56 1012.67 1012.81 1013.00 1013.25 1013.55 1013.89 1014.27 1014.65 1015.03 1015.38 1015.69 1015.95 1016.18 1016.37 1016.54 1016.70
1014.37 1014.36 1014.30 1014.17 1013.98 1013.74 1013.48 1013.23 1013.00 1012.83 1012.71 1012.65 1012.63 1012.62 1012.62 1012.61 1012.58 1012.52 1012.45 1012.38 1012.32 1012.28 1012.27 1012.29 1012.34 1012.42 1012.52 1012.64 1012.78 1012.95 1013.15 1013.37 1013.63 1013.92 1014.21 1014.52 1014.81 1015.09 1015.35 1015.58 1015.80 1016.00 1016.19
1014.67 1014.66 1014.58 1014.44 1014.23 1013.98 1013.71 1013.44 1013.20 1013.00 1012.86 1012.76 1012.70 1012.65 1012.60 1012.54 1012.46 1012.36 1012.26 1012.17 1012.11 1012.08 1012.10 1012.15 1012.24 1012.36 1012.48 1012.61 1012.74 1012.87 1013.01 1013.16 1013.32 1013.50 1013.71 1013.93 1014.17 1014.43 1014.68 1014.94 1015.19 1015.42 1015.64
1014.98 1014.95 1014.87 1014.73 1014.53 1014.29 1014.02 1013.76 1013.52 1013.32 1013.17 1013.05 1012.95 1012.86 1012.75 1012.63 1012.49 1012.34 1012.20 1012.08 1012.00 1011.97 1012.00 1012.08 1012.21 1012.35 1012.50 1012.64 1012.75 1012.85 1012.92 1012.98 1013.04 1013.13 1013.24 1013.39 1013.58 1013.80 1014.05 1014.32 1014.59 1014.86 1015.10
1015.23 1015.20 1015.13 1015.00 1014.82 1014.60 1014.37 1014.14 1013.93 1013.74 1013.59 1013.46 1013.34 1013.21 1013.06 1012.88 1012.68 1012.48 1012.28 1012.12 1012.01 1011.97 1012.01 1012.11 1012.25 1012.43 1012.59 1012.73 1012.84 1012.89 1012.90 1012.89 1012.87 1012.86 1012.89 1012.97 1013.10 1013.29 1013.53 1013.80 1014.08 1014.36 1014.61
1015.41 1015.37 1015.30 1015.19 1015.05 1014.87 1014.68 1014.49 1014.32 1014.17 1014.04 1013.92 1013.80 1013.65 1013.47 1013.25 1013.00 1012.74 1012.49 1012.28 1012.14 1012.08 1012.11 1012.21 1012.37 1012.56 1012.74 1012.88 1012.98 1013.01 1012.98 1012.91 1012.82 1012.74 1012.70 1012.72 1012.80 1012.95 1013.16 1013.41 1013.68 1013.95 1014.19
1015.51 1015.46 1015.39 1015.30 1015.18 1015.04 1014.90 1014.77 1014.65 1014.55 1014.46 1014.37 1014.25 1014.11 1013.91 1013.67 1013.39 1013.09 1012.80 1012.56 1012.38 1012.29 1012.30 1012.39 1012.54 1012.73 1012.92 1013.06 1013.15 1013.17 1013.12 1013.01 1012.88 1012.75 1012.66 1012.62 1012.65 1012.76 1012.94 1013.16 1013.40 1013.64 1013.85
1015.56 1015.50 1015.43 1015.34 1015.24 1015.13 1015.03 1014.95 1014.88 1014.83 1014.79 1014.74 1014.66 1014.54 1014.36 1014.12 1013.83 1013.51 1013.20 1012.92 1012.71 1012.58 1012.56 1012.62 1012.75 1012.92 1013.09 1013.23 1013.32 1013.33 1013.27 1013.15 1012.99 1012.84 1012.71 1012.64 1012.64 1012.71 1012.84 1013.02 1013.22 1013.42 1013.58
1015.65 1015.56 1015.47 1015.38 1015.28 1015.19 1015.12 1015.06 1015.03 1015.03 1015.04 1015.04 1015.01 1014.93 1014.78 1014.57 1014.30 1013.98 1013.66 1013.36 1013.11 1012.94 1012.87 1012.89 1012.98 1013.11 1013.26 1013.38 1013.45 1013.46 1013.39 1013.28 1013.12 1012.96 1012.82 1012.73 1012.70 1012.74 1012.83 1012.96 1013.12 1013.26 1013.37
1015.83 1015.73 1015.62 1015.51 1015.40 1015.30 1015.23 1015.19 1015.18 1015.21 1015.25 1015.30 1015.32 1015.29 1015.19 1015.02 1014.78 1014.48 1014.16 1013.85 1013.57 1013.37 1013.24 1013.20 1013.23 1013.31 1013.41 1013.49 1013.54 1013.54 1013.48 1013.37 1013.23 1013.08 1012.94 1012.84 1012.80 1012.80 1012.86 1012.95 1013.05 1013.14 1013.20
1016.17 1016.05 1015.92 1015.79 1015.66 1015.54 1015.46 1015.41 1015.40 1015.43 1015.50 1015.57 1015.63 1015.65 1015.60 1015.47 1015.27 1015.01 1014.70 1014.38 1014.08 1013.83 1013.65 1013.54 1013.50 1013.51 1013.55 1013.59 1013.61 1013.59 1013.53 1013.43 1013.30 1013.17 1013.04 1012.95 1012.89 1012.88 1012.91 1012.95 1013.01 1013.05 1013.07
Thickness
5772 5771 5769 5768 5769 5771 5769 5767 5767 5766 5765 5764 5763 5762 5761 5761 5760 5759 5755 5751 5748 5746 5744 5743 5743 5742 5742 5741 5740 5738 5734 5730 5727 5723 5719 5715 5711 5708 5705 5702 5700 5697 5695
5771 5768 5766 5765 5766 5766 5767 5767 5766 5763 5763 5764 5762 5761 5759 5759 5759 5757 5757 5755 5751 5748 5745 5744 5743 5743 5743 5743 5742 5741 5738 5735 5730 5725 5721 5716 5712 5707 5704 5701 5698 5695 5693
5767 5764 5764 5763 5763 5763 5762 5760 5760 5760 5761 5761 5760 5759 5758 5756 5756 5755 5754 5753 5753 5751 5748 5745 5744 5743 5743 5743 5743 5742 5741 5738 5733 5728 5722 5717 5712 5707 5703 5699 5696 5693 5691
5764 5761 5762 5762 5761 5761 5760 5759 5758 5758 5760 5759 5758 5757 5756 5754 5753 5753 5754 5752 5751 5751 5750 5748 5745 5743 5742 5742 5742 5742 5742 5741 5737 5731 5724 5718 5712 5707 5701 5696 5693 5689 5687
5761 5758 5758 5757 5757 5758 5759 5759 5759 5756 5756 5755 5756 5755 5755 5754 5753 5753 5752 5751 5750 5748 5748 5748 5746 5744 5743 5741 5741 5741 5741 5741 5739 5733 5726 5719 5712 5705 5698 5693 5688 5685 5682
5756 5754 5754 5754 5754 5754 5753 5753 5752 5751 5752 5751 5753 5753 5753 5755 5754 5754 5751 5752 5749 5747 5747 5746 5746 5746 5743 5741 5740 5739 5739 5740 5738 5733 5727 5720 5713 5704 5696 5689 5684 5680 5678
5751 5749 5750 5749 5749 5749 5749 5750 5749 5749 5748 5750 5748 5749 5753 5754 5751 5749 5750 5749 5749 5746 5744 5743 5744 5742 5743 5741 5739 5738 5737 5737 5737 5733 5728 5721 5713 5704 5694 5685 5680 5676 5674
5743 5744 5744 5743 5744 5744 5743 5743 5742 5743 5746 5746 5743 5741 5742 5747 5745 5748 5747 5745 5744 5745 5745 5744 5740 5739 5739 5739 5739 5737 5736 5735 5735 5733 5729 5722 5713 5701 5690 5681 5676 5672 5670
5737 5737 5739 5739 5738 5738 5738 5738 5738 5737 5736 5741 5742 5738 5734 5734 5738 5746 5744 5742 5740 5741 5743 5741 5739 5736 5736 5736 5736 5736 5734 5733 5732 5731 5727 5720 5710 5698 5687 5679 5674 5670 5666
5734 5733 5732 5734 5734 5733 5733 5734 5738 5736 5733 5733 5736 5735 5735 5734 5729 5733 5740 5742 5740 5738 5738 5738 5737 5735 5733 5733 5732 5730 5730 5728 5727 5726 5721 5713 5703 5693 5684 5678 5672 5667 5663
5731 5729 5727 5728 5729 5729 5730 5730 5731 5731 5731 5729 5729 5730 5729 5728 5728 5725 5725 5730 5737 5740 5738 5736 5734 5732 5728 5727 5727 5726 5724 5722 5719 5716 5710 5703 5694 5687 5681 5675 5670 5666 5662
5724 5723 5721 5722 5723 5725 5725 5725 5726 5727 5727 5727 5726 5726 5725 5725 5726 5726 5723 5722 5726 5733 5733 5730 5730 5727 5723 5721 5720 5719 5717 5714 5710 5704 5699 5692 5686 5681 5676 5672 5668 5665 5661
5712 5711 5712 5714 5717 5718 5719 5720 5720 5721 5722 5721 5720 5721 5722 5723 5726 5724 5722 5721 5720 5725 5726 5727 5725 5721 5717 5713 5711 5710 5708 5704 5700 5694 5688 5684 5679 5676 5673 5670 5667 5664 5661
5700 5700 5703 5705 5708 5711 5712 5713 5714 5715 5716 5715 5716 5716 5715 5718 5719 5719 5718 5715 5709 5712 5717 5717 5718 5716 5711 5706 5702 5701 5697 5694 5690 5686 5681 5677 5674 5672 5670 5667 5665 5663 5661
5692 5692 5694 5696 5699 5701 5703 5704 5706 5707 5709 5709 5710 5710 5710 5711 5712 5714 5713 5710 5702 5697 5700 5706 5708 5708 5706 5701 5696 5695 5691 5687 5684 5680 5676 5674 5671 5669 5668 5666 5665 5664 5663
5683 5684 5685 5687 5689 5691 5693 5695 5698 5701 5701 5702 5703 5702 5703 5704 5706 5707 5708 5707 5703 5696 5693 5701 5702 5705 5702 5699 5692 5691 5687 5682 5679 5676 5674 5672 5670 5668 5667 5667 5667 5666 5666
5674 5675 5676 5677 5679 5682 5685 5687 5691 5692 5692 5694 5695 5696 5696 5697 5698 5700 5701 5701 5700 5697 5692 5696 5697 5699 5696 5695 5690 5688 5686 5680 5678 5675 5673 5672 5670 5669 5669 5669 5669 5669 5669
5666 5667 5668 5670 5673 5676 5679 5681 5683 5685 5685 5686 5687 5688 5689 5691 5691 5693 5694 5695 5695 5695 5692 5691 5691 5692 5691 5691 5689 5687 5687 5685 5685 5679 5676 5674 5673 5672 5672 5672 5672 5671 5671
5658 5659 5661 5664 5667 5669 5672 5674 5675 5677 5677 5678 5678 5680 5681 5681 5682 5686 5687 5689 5691 5693 5692 5689 5688 5688 5687 5687 5685 5684 5686 5685 5687 5685 5679 5677 5675 5675 5674 5674 5674 5674 5674
5649 5651 5653 5655 5658 5661 5663 5665 5667 5667 5667 5666 5666 5667 5669 5672 5673 5676 5679 5682 5684 5686 5686 5686 5684 5683 5681 5681 5679 5678 5678 5681 5684 5688 5683 5680 5678 5676 5676 5676 5676 5676 5676
5640 5642 5644 5646 5647 5649 5649 5651 5655 5655 5654 5654 5654 5655 5656 5657 5658 5662 5668 5671 5675 5677 5679 5679 5677 5676 5674 5672 5670 5671 5671 5674 5677 5683 5682 5681 5680 5677 5675 5675 5675 5676 5676
5629 5630 5631 5633 5634 5635 5631 5633 5638 5641 5642 5643 5644 5645 5646 5647 5648 5649 5652 5655 5659 5665 5668 5670 5670 5668 5665 5664 5663 5662 5663 5664 5666 5675 5676 5677 5680 5678 5678 5677 5673 5674 5675
5616 5617 5619 5619 5619 5617 5615 5618 5621 5627 5628 5629 5631 5634 5637 5637 5639 5644 5645 5646 5648 5650 5653 5659 5659 5657 5656 5654 5654 5654 5654 5656 5659 5664 5667 5668 5673 5672 5674 5668 5668 5669 5671
5602 5603 5605 5606 5605 5602 5601 5603 5607 5613 5615 5616 5618 5621 5624 5625 5625 5628 5636 5638 5639 5639 5643 5647 5647 5647 5646 5645 5646 5645 5646 5649 5653 5656 5658 5659 5666 5668 5670 5667 5663 5664 5665
5586 5588 5590 5592 5592 5589 5587 5590 5594 5601 5602 5602 5604 5605 5609 5610 5608 5612 5623 5625 5626 5627 5627 5628 5630 5631 5631 5633 5635 5638 5639 5641 5643 5647 5651 5654 5658 5661 5662 5662 5660 5659 5659
5573 5575 5577 5579 5579 5578 5574 5576 5580 5591 5589 5592 5592 5594 5591 5593 5594 5597 5608 5611 5612 5615 5619 5620 5620 5620 5623 5624 5626 5629 5634 5636 5637 5638 5641 5645 5650 5652 5651 5653 5655 5655 5655